Time,TemperatureF,DewpointF,PressureIn,WindDirection,WindDirectionDegrees,WindSpeedMPH,WindSpeedGustMPH,Humidity,HourlyPrecipIn,Conditions,Clouds,dailyrainin,SoftwareType,DateUTC
2013-02-02 00:00:00,12.9,6.8,30.36,WSW,242,0.0,2.0,76,0.00,,,0.05,Wunderground v.1.13,2013-02-02 05:00:00,
2013-02-02 00:01:00,12.9,6.8,30.35,WSW,242,0.0,2.0,76,0.00,,,0.05,Wunderground v.1.13,2013-02-02 05:01:00,
2013-02-02 00:02:00,12.8,6.7,30.36,WSW,242,0.0,2.0,76,0.00,,,0.05,Wunderground v.1.13,2013-02-02 05:02:00,
2013-02-02 00:08:00,12.6,6.5,30.36,WSW,242,0.0,0.0,76,0.00,,,0.05,Wunderground v.1.13,2013-02-02 05:08:00,
2013-02-02 00:12:00,12.3,6.2,30.36,WSW,242,0.0,0.0,76,0.00,,,0.05,Wunderground v.1.13,2013-02-02 05:12:00,
2013-02-02 00:18:00,12.1,6.0,30.35,North,32767,-999.0,0.0,76,0.00,,,0.05,Wunderground v.1.13,2013-02-02 05:18:00,
2013-02-02 00:24:00,11.9,5.5,30.35,North,32767,-999.0,0.0,75,0.00,,,0.05,Wunderground v.1.13,2013-02-02 05:24:00,
2013-02-02 00:30:00,11.7,5.3,30.35,North,32767,-999.0,0.0,75,0.00,,,0.05,Wunderground v.1.13,2013-02-02 05:30:00,
2013-02-02 00:36:00,11.6,5.2,30.35,WSW,240,0.0,0.0,75,0.00,,,0.05,Wunderground v.1.13,2013-02-02 05:36:00,
2013-02-02 00:41:00,11.4,5.0,30.35,WSW,240,0.0,1.0,75,0.00,,,0.05,Wunderground v.1.13,2013-02-02 05:41:00,
2013-02-02 00:47:00,11.3,4.9,30.35,WSW,240,0.0,0.0,75,0.00,,,0.05,Wunderground v.1.13,2013-02-02 05:47:00,
2013-02-02 00:53:00,11.2,4.8,30.35,WSW,240,0.0,2.0,75,0.00,,,0.05,Wunderground v.1.13,2013-02-02 05:53:00,
2013-02-02 00:59:00,11.1,4.7,30.34,WSW,240,0.0,2.0,75,0.00,,,0.05,Wunderground v.1.13,2013-02-02 05:59:00,
2013-02-02 01:05:00,10.9,4.8,30.34,WSW,240,0.0,0.0,76,0.00,,,0.05,Wunderground v.1.13,2013-02-02 06:05:00,
2013-02-02 01:11:00,10.8,4.7,30.34,WSW,240,0.0,0.0,76,0.00,,,0.05,Wunderground v.1.13,2013-02-02 06:11:00,
2013-02-02 01:17:00,10.7,4.6,30.34,WSW,240,0.0,0.0,76,0.00,,,0.05,Wunderground v.1.13,2013-02-02 06:17:00,
2013-02-02 01:23:00,10.6,4.5,30.34,WSW,240,0.0,1.0,76,0.00,,,0.05,Wunderground v.1.13,2013-02-02 06:23:00,
2013-02-02 01:28:00,10.5,4.7,30.34,WSW,240,0.0,0.0,77,0.00,,,0.05,Wunderground v.1.13,2013-02-02 06:28:00,
2013-02-02 01:34:00,10.5,4.7,30.34,WSW,240,0.0,0.0,77,0.00,,,0.05,Wunderground v.1.13,2013-02-02 06:34:00,
2013-02-02 01:40:00,10.5,4.7,30.34,WSW,240,0.0,0.0,77,0.00,,,0.05,Wunderground v.1.13,2013-02-02 06:40:00,
2013-02-02 01:46:00,10.4,4.6,30.34,WSW,240,0.0,3.0,77,0.00,,,0.05,Wunderground v.1.13,2013-02-02 06:46:00,
2013-02-02 01:51:00,10.3,4.5,30.34,WSW,240,0.0,0.0,77,0.00,,,0.06,Wunderground v.1.13,2013-02-02 06:51:00,
2013-02-02 01:57:00,10.3,4.5,30.34,WSW,240,0.0,0.0,77,0.00,,,0.06,Wunderground v.1.13,2013-02-02 06:57:00,
2013-02-02 02:02:00,10.2,4.4,30.34,WSW,240,0.0,0.0,77,0.00,,,0.06,Wunderground v.1.13,2013-02-02 07:02:00,
2013-02-02 02:08:00,10.1,4.6,30.34,WSW,240,0.0,0.0,78,0.00,,,0.06,Wunderground v.1.13,2013-02-02 07:08:00,
2013-02-02 02:13:00,10.1,4.6,30.34,WSW,240,0.0,0.0,78,0.00,,,0.06,Wunderground v.1.13,2013-02-02 07:13:00,
2013-02-02 02:19:00,10.0,4.5,30.34,WSW,240,0.0,0.0,78,0.00,,,0.06,Wunderground v.1.13,2013-02-02 07:19:00,
2013-02-02 02:24:00,9.9,4.4,30.34,WSW,240,0.0,0.0,78,0.00,,,0.06,Wunderground v.1.13,2013-02-02 07:24:00,
2013-02-02 02:29:00,9.8,4.6,30.34,WSW,240,0.0,0.0,79,0.00,,,0.06,Wunderground v.1.13,2013-02-02 07:29:00,
2013-02-02 02:35:00,9.7,4.5,30.34,WSW,240,0.0,0.0,79,0.00,,,0.06,Wunderground v.1.13,2013-02-02 07:35:00,
2013-02-02 02:41:00,9.6,4.4,30.34,WSW,240,0.0,0.0,79,0.00,,,0.06,Wunderground v.1.13,2013-02-02 07:41:00,
2013-02-02 02:46:00,9.5,4.3,30.34,WSW,240,0.0,0.0,79,0.00,,,0.06,Wunderground v.1.13,2013-02-02 07:46:00,
2013-02-02 02:51:00,9.5,4.3,30.34,WSW,240,0.0,0.0,79,0.00,,,0.06,Wunderground v.1.13,2013-02-02 07:51:00,
2013-02-02 02:57:00,9.4,4.5,30.33,WSW,240,0.0,0.0,80,0.00,,,0.06,Wunderground v.1.13,2013-02-02 07:57:00,
2013-02-02 03:06:00,9.3,4.4,30.33,WSW,240,0.0,0.0,80,0.00,,,0.06,Wunderground v.1.13,2013-02-02 08:06:00,
2013-02-02 03:12:00,9.2,4.6,30.33,WSW,240,0.0,0.0,81,0.00,,,0.06,Wunderground v.1.13,2013-02-02 08:12:00,
2013-02-02 03:17:00,9.2,4.6,30.33,WSW,240,0.0,0.0,81,0.00,,,0.06,Wunderground v.1.13,2013-02-02 08:17:00,
2013-02-02 03:23:00,9.2,4.6,30.33,WSW,240,0.0,0.0,81,0.00,,,0.06,Wunderground v.1.13,2013-02-02 08:23:00,
2013-02-02 03:29:00,9.2,4.6,30.33,WSW,240,0.0,0.0,81,0.00,,,0.06,Wunderground v.1.13,2013-02-02 08:29:00,
2013-02-02 03:35:00,9.3,4.6,30.32,WSW,240,0.0,0.0,81,0.00,,,0.06,Wunderground v.1.13,2013-02-02 08:35:00,
2013-02-02 03:41:00,9.4,4.7,30.32,WSW,240,0.0,0.0,81,0.00,,,0.06,Wunderground v.1.13,2013-02-02 08:41:00,
2013-02-02 03:46:00,9.5,4.8,30.32,WSW,240,0.0,0.0,81,0.00,,,0.06,Wunderground v.1.13,2013-02-02 08:46:00,
2013-02-02 03:52:00,9.5,4.8,30.32,WSW,240,0.0,0.0,81,0.00,,,0.06,Wunderground v.1.13,2013-02-02 08:52:00,
2013-02-02 03:58:00,9.5,4.8,30.32,WSW,240,0.0,0.0,81,0.00,,,0.06,Wunderground v.1.13,2013-02-02 08:58:00,
2013-02-02 04:04:00,9.5,4.8,30.32,WSW,240,0.0,0.0,81,0.00,,,0.06,Wunderground v.1.13,2013-02-02 09:04:00,
2013-02-02 04:10:00,9.6,4.9,30.32,WSW,240,0.0,0.0,81,0.00,,,0.06,Wunderground v.1.13,2013-02-02 09:10:00,
2013-02-02 04:16:00,9.6,4.9,30.32,WSW,240,0.0,0.0,81,0.00,,,0.06,Wunderground v.1.13,2013-02-02 09:16:00,
2013-02-02 04:22:00,9.6,4.9,30.32,WSW,240,0.0,2.0,81,0.00,,,0.06,Wunderground v.1.13,2013-02-02 09:22:00,
2013-02-02 04:28:00,9.6,4.7,30.32,WSW,240,0.0,1.0,80,0.00,,,0.06,Wunderground v.1.13,2013-02-02 09:28:00,
2013-02-02 04:33:00,9.6,4.7,30.32,WSW,240,0.0,0.0,80,0.00,,,0.06,Wunderground v.1.13,2013-02-02 09:33:00,
2013-02-02 04:39:00,9.6,4.7,30.32,WSW,240,0.0,0.0,80,0.00,,,0.06,Wunderground v.1.13,2013-02-02 09:39:00,
2013-02-02 04:45:00,9.6,4.7,30.31,WSW,240,0.0,0.0,80,0.00,,,0.06,Wunderground v.1.13,2013-02-02 09:45:00,
2013-02-02 04:51:00,9.6,4.7,30.31,WSW,240,0.0,0.0,80,0.00,,,0.06,Wunderground v.1.13,2013-02-02 09:51:00,
2013-02-02 04:57:00,9.5,4.6,30.31,WSW,240,0.0,0.0,80,0.00,,,0.06,Wunderground v.1.13,2013-02-02 09:57:00,
2013-02-02 05:03:00,9.5,4.6,30.31,WSW,240,0.0,0.0,80,0.00,,,0.06,Wunderground v.1.13,2013-02-02 10:03:00,
2013-02-02 05:09:00,9.5,4.6,30.30,WSW,240,0.0,1.0,80,0.00,,,0.06,Wunderground v.1.13,2013-02-02 10:09:00,
2013-02-02 05:15:00,9.4,4.5,30.30,WSW,240,0.0,0.0,80,0.00,,,0.06,Wunderground v.1.13,2013-02-02 10:15:00,
2013-02-02 05:20:00,9.3,4.4,30.31,WSW,240,0.0,0.0,80,0.00,,,0.06,Wunderground v.1.13,2013-02-02 10:20:00,
2013-02-02 05:26:00,9.1,4.2,30.31,WSW,240,0.0,0.0,80,0.00,,,0.06,Wunderground v.1.13,2013-02-02 10:26:00,
2013-02-02 05:32:00,9.1,4.2,30.31,WSW,240,0.0,0.0,80,0.00,,,0.06,Wunderground v.1.13,2013-02-02 10:32:00,
2013-02-02 05:38:00,9.0,4.1,30.31,WSW,240,0.0,0.0,80,0.00,,,0.06,Wunderground v.1.13,2013-02-02 10:38:00,
2013-02-02 05:44:00,8.9,4.0,30.31,WSW,240,0.0,0.0,80,0.00,,,0.06,Wunderground v.1.13,2013-02-02 10:44:00,
2013-02-02 05:50:00,8.8,4.2,30.30,WSW,240,0.0,0.0,81,0.00,,,0.06,Wunderground v.1.13,2013-02-02 10:50:00,
2013-02-02 05:56:00,8.8,4.2,30.31,WSW,240,0.0,0.0,81,0.00,,,0.06,Wunderground v.1.13,2013-02-02 10:56:00,
2013-02-02 06:02:00,8.7,4.1,30.31,WSW,240,0.0,0.0,81,0.00,,,0.06,Wunderground v.1.13,2013-02-02 11:02:00,
2013-02-02 06:07:00,8.7,4.1,30.30,WSW,240,0.0,0.0,81,0.00,,,0.06,Wunderground v.1.13,2013-02-02 11:07:00,
2013-02-02 06:12:00,8.6,4.0,30.30,WSW,240,0.0,0.0,81,0.00,,,0.06,Wunderground v.1.13,2013-02-02 11:12:00,
2013-02-02 06:18:00,8.6,4.0,30.30,WSW,240,0.0,0.0,81,0.00,,,0.06,Wunderground v.1.13,2013-02-02 11:18:00,
2013-02-02 06:24:00,8.4,3.8,30.30,WSW,240,0.0,0.0,81,0.00,,,0.06,Wunderground v.1.13,2013-02-02 11:24:00,
2013-02-02 06:29:00,8.2,3.6,30.30,WSW,240,0.0,0.0,81,0.00,,,0.06,Wunderground v.1.13,2013-02-02 11:29:00,
2013-02-02 06:35:00,8.1,3.7,30.30,WSW,240,0.0,0.0,82,0.00,,,0.06,Wunderground v.1.13,2013-02-02 11:35:00,
2013-02-02 06:41:00,7.9,3.5,30.30,WSW,240,0.0,0.0,82,0.00,,,0.06,Wunderground v.1.13,2013-02-02 11:41:00,
2013-02-02 06:47:00,7.8,3.4,30.29,WSW,240,0.0,0.0,82,0.00,,,0.06,Wunderground v.1.13,2013-02-02 11:47:00,
2013-02-02 06:53:00,7.8,3.4,30.29,WSW,240,0.0,0.0,82,0.00,,,0.06,Wunderground v.1.13,2013-02-02 11:53:00,
2013-02-02 06:58:00,7.7,3.6,30.30,WSW,240,0.0,0.0,83,0.00,,,0.06,Wunderground v.1.13,2013-02-02 11:58:00,
2013-02-02 07:04:00,7.7,3.6,30.29,WSW,240,0.0,0.0,83,0.00,,,0.06,Wunderground v.1.13,2013-02-02 12:04:00,
2013-02-02 07:10:00,7.5,3.4,30.29,WSW,240,0.0,1.0,83,0.00,,,0.06,Wunderground v.1.13,2013-02-02 12:10:00,
2013-02-02 07:16:00,7.5,3.4,30.30,WSW,240,0.0,0.0,83,0.00,,,0.06,Wunderground v.1.13,2013-02-02 12:16:00,
2013-02-02 07:22:00,-999.9,-99.9,30.29,WSW,240,0.0,0.0,255,-99.99,,,0.06,Wunderground v.1.13,2013-02-02 12:22:00,
2013-02-02 07:28:00,-999.9,-99.9,30.29,WSW,240,0.0,2.0,255,-99.99,,,0.06,Wunderground v.1.13,2013-02-02 12:28:00,
2013-02-02 07:34:00,-999.9,-99.9,30.29,WSW,240,0.0,0.0,255,-99.99,,,0.06,Wunderground v.1.13,2013-02-02 12:34:00,
2013-02-02 07:40:00,-999.9,-99.9,30.29,WSW,240,0.0,0.0,255,-99.99,,,0.06,Wunderground v.1.13,2013-02-02 12:40:00,
2013-02-02 07:45:00,-999.9,-99.9,30.29,WSW,240,0.0,0.0,255,-99.99,,,0.06,Wunderground v.1.13,2013-02-02 12:45:00,
2013-02-02 07:51:00,-999.9,-99.9,30.29,WSW,240,0.0,0.0,255,-99.99,,,0.06,Wunderground v.1.13,2013-02-02 12:51:00,
2013-02-02 07:57:00,9.4,5.8,30.28,WSW,240,1.0,1.0,85,0.00,,,0.06,Wunderground v.1.13,2013-02-02 12:57:00,
2013-02-02 08:03:00,9.7,5.8,30.28,WSW,240,0.0,0.0,84,0.00,,,0.00,Wunderground v.1.13,2013-02-02 13:03:00,
2013-02-02 08:09:00,10.0,6.1,30.29,WSW,240,0.0,3.0,84,0.00,,,0.00,Wunderground v.1.13,2013-02-02 13:09:00,
2013-02-02 08:15:00,10.3,6.2,30.28,WSW,240,1.0,5.0,83,0.00,,,0.00,Wunderground v.1.13,2013-02-02 13:15:00,
2013-02-02 08:21:00,10.8,6.7,30.28,WSW,240,1.0,1.0,83,0.00,,,0.00,Wunderground v.1.13,2013-02-02 13:21:00,
2013-02-02 08:27:00,11.4,7.0,30.29,WSW,240,1.0,2.0,82,0.00,,,0.00,Wunderground v.1.13,2013-02-02 13:27:00,
2013-02-02 08:32:00,11.9,7.2,30.28,WSW,240,0.0,1.0,81,0.00,,,0.00,Wunderground v.1.13,2013-02-02 13:32:00,
2013-02-02 08:38:00,12.6,7.6,30.28,WSW,238,1.0,1.0,80,0.00,,,0.00,Wunderground v.1.13,2013-02-02 13:38:00,
2013-02-02 08:44:00,13.3,7.4,30.28,WSW,238,2.0,2.0,77,0.00,,,0.00,Wunderground v.1.13,2013-02-02 13:44:00,
2013-02-02 08:50:00,13.8,7.3,30.28,SW,222,0.0,1.0,75,0.00,,,0.00,Wunderground v.1.13,2013-02-02 13:50:00,
2013-02-02 08:56:00,14.1,7.3,30.28,SW,222,0.0,1.0,74,0.00,,,0.00,Wunderground v.1.13,2013-02-02 13:56:00,
2013-02-02 09:02:00,14.1,7.3,30.28,North,32767,-999.0,1.0,74,0.00,,,0.00,Wunderground v.1.13,2013-02-02 14:02:00,
2013-02-02 09:08:00,14.4,7.6,30.28,North,32767,-999.0,0.0,74,0.00,,,0.00,Wunderground v.1.13,2013-02-02 14:08:00,
2013-02-02 09:14:00,14.6,7.8,30.27,WSW,240,3.0,3.0,74,0.00,,,0.00,Wunderground v.1.13,2013-02-02 14:14:00,
2013-02-02 09:19:00,15.1,8.3,30.27,SW,225,2.0,3.0,74,0.00,,,0.00,Wunderground v.1.13,2013-02-02 14:19:00,
2013-02-02 09:25:00,15.4,8.6,30.26,SW,221,2.0,4.0,74,0.00,,,0.00,Wunderground v.1.13,2013-02-02 14:25:00,
2013-02-02 09:31:00,16.0,9.2,30.26,WSW,257,2.0,2.0,74,0.00,,,0.01,Wunderground v.1.13,2013-02-02 14:31:00,
2013-02-02 09:37:00,16.3,9.2,30.26,West,267,2.0,3.0,73,0.00,,,0.01,Wunderground v.1.13,2013-02-02 14:37:00,
2013-02-02 09:42:00,16.8,9.3,30.26,SSW,209,2.0,4.0,72,0.00,,,0.01,Wunderground v.1.13,2013-02-02 14:42:00,
2013-02-02 09:47:00,17.0,9.5,30.25,WSW,248,3.0,4.0,72,0.00,,,0.01,Wunderground v.1.13,2013-02-02 14:47:00,
2013-02-02 09:52:00,17.2,9.7,30.25,WSW,257,3.0,4.0,72,0.00,,,0.01,Wunderground v.1.13,2013-02-02 14:52:00,
2013-02-02 09:58:00,17.6,10.1,30.25,SSW,212,3.0,4.0,72,0.00,,,0.01,Wunderground v.1.13,2013-02-02 14:58:00,
2013-02-02 10:03:00,17.9,10.4,30.25,SSW,212,3.0,3.0,72,0.00,,,0.01,Wunderground v.1.13,2013-02-02 15:03:00,
2013-02-02 10:09:00,18.1,10.6,30.25,WSW,238,3.0,10.0,72,0.00,,,0.01,Wunderground v.1.13,2013-02-02 15:09:00,
2013-02-02 10:15:00,17.9,10.4,30.25,West,263,4.0,7.0,72,0.00,,,0.01,Wunderground v.1.13,2013-02-02 15:15:00,
2013-02-02 10:20:00,18.2,11.0,30.24,WSW,253,3.0,3.0,73,0.00,,,0.01,Wunderground v.1.13,2013-02-02 15:20:00,
2013-02-02 10:26:00,18.6,10.8,30.23,WSW,242,3.0,7.0,71,0.00,,,0.01,Wunderground v.1.13,2013-02-02 15:26:00,
2013-02-02 10:32:00,18.9,10.7,30.23,SSW,209,5.0,7.0,70,0.00,,,0.01,Wunderground v.1.13,2013-02-02 15:32:00,
2013-02-02 10:38:00,18.8,10.9,30.23,SSW,213,4.0,7.0,71,0.00,,,0.01,Wunderground v.1.13,2013-02-02 15:38:00,
2013-02-02 10:43:00,19.1,11.2,30.23,South,178,3.0,7.0,71,0.00,,,0.01,Wunderground v.1.13,2013-02-02 15:43:00,
2013-02-02 10:48:00,19.8,12.2,30.22,SW,224,3.0,7.0,72,0.00,,,0.01,Wunderground v.1.13,2013-02-02 15:48:00,
2013-02-02 10:54:00,20.3,12.4,30.22,WSW,258,3.0,7.0,71,0.00,,,0.01,Wunderground v.1.13,2013-02-02 15:54:00,
2013-02-02 11:00:00,20.0,11.8,30.22,SSW,202,3.0,7.0,70,0.00,,,0.01,Wunderground v.1.13,2013-02-02 16:00:00,
2013-02-02 11:05:00,19.8,11.9,30.22,WSW,242,4.0,11.0,71,0.00,,,0.01,Wunderground v.1.13,2013-02-02 16:05:00,
2013-02-02 11:11:00,19.9,12.3,30.21,West,271,4.0,11.0,72,0.00,,,0.01,Wunderground v.1.13,2013-02-02 16:11:00,
2013-02-02 11:17:00,20.2,12.3,30.20,SW,231,2.0,11.0,71,0.00,,,0.01,Wunderground v.1.13,2013-02-02 16:17:00,
2013-02-02 11:23:00,20.3,12.4,30.19,SW,236,3.0,11.0,71,0.00,,,0.01,Wunderground v.1.13,2013-02-02 16:23:00,
2013-02-02 11:29:00,20.5,12.6,30.19,SW,228,3.0,11.0,71,0.00,,,0.01,Wunderground v.1.13,2013-02-02 16:29:00,
2013-02-02 11:35:00,20.9,13.9,30.19,SW,230,2.0,2.0,74,0.00,,,0.01,Wunderground v.1.13,2013-02-02 16:35:00,
2013-02-02 11:40:00,21.5,14.2,30.19,SW,227,1.0,11.0,73,0.00,,,0.01,Wunderground v.1.13,2013-02-02 16:40:00,
2013-02-02 11:46:00,21.6,14.0,30.18,SSW,195,2.0,11.0,72,0.00,,,0.01,Wunderground v.1.13,2013-02-02 16:46:00,
2013-02-02 11:52:00,21.8,14.2,30.18,South,187,3.0,11.0,72,0.00,,,0.01,Wunderground v.1.13,2013-02-02 16:52:00,
2013-02-02 11:58:00,21.7,14.1,30.17,SW,234,3.0,11.0,72,0.00,,,0.01,Wunderground v.1.13,2013-02-02 16:58:00,
2013-02-02 12:04:00,21.9,13.9,30.17,SW,226,3.0,11.0,71,0.00,,,0.01,Wunderground v.1.13,2013-02-02 17:04:00,
2013-02-02 12:10:00,21.8,14.5,30.17,WSW,240,4.0,12.0,73,0.00,,,0.01,Wunderground v.1.13,2013-02-02 17:10:00,
2013-02-02 12:16:00,22.0,14.7,30.16,South,186,3.0,7.0,73,0.00,,,0.01,Wunderground v.1.13,2013-02-02 17:16:00,
2013-02-02 12:22:00,21.8,14.8,30.16,West,267,3.0,15.0,74,0.00,,,0.01,Wunderground v.1.13,2013-02-02 17:22:00,
2013-02-02 12:27:00,21.6,14.6,30.15,WSW,244,3.0,12.0,74,0.00,,,0.01,Wunderground v.1.13,2013-02-02 17:27:00,
2013-02-02 12:33:00,21.7,14.7,30.14,WSW,242,2.0,12.0,74,0.00,,,0.01,Wunderground v.1.13,2013-02-02 17:33:00,
2013-02-02 12:39:00,22.0,15.0,30.14,WSW,242,2.0,12.0,74,0.00,,,0.01,Wunderground v.1.13,2013-02-02 17:39:00,
2013-02-02 12:44:00,22.0,14.3,30.14,South,191,4.0,12.0,72,0.00,,,0.01,Wunderground v.1.13,2013-02-02 17:44:00,
2013-02-02 12:50:00,22.2,14.9,30.13,SW,216,3.0,3.0,73,0.00,,,0.01,Wunderground v.1.13,2013-02-02 17:50:00,
2013-02-02 12:55:00,23.1,15.7,30.13,SSW,199,2.0,12.0,73,0.00,,,0.01,Wunderground v.1.13,2013-02-02 17:55:00,
2013-02-02 13:00:00,22.8,14.5,30.12,SSE,162,3.0,12.0,70,0.00,,,0.01,Wunderground v.1.13,2013-02-02 18:00:00,
2013-02-02 13:05:00,23.1,15.1,30.12,West,261,4.0,4.0,71,0.00,,,0.01,Wunderground v.1.13,2013-02-02 18:05:00,
2013-02-02 13:11:00,23.7,15.3,30.11,SW,232,3.0,10.0,70,0.00,,,0.01,Wunderground v.1.13,2013-02-02 18:11:00,
2013-02-02 13:17:00,24.1,14.7,30.11,SW,230,2.0,10.0,67,0.00,,,0.01,Wunderground v.1.13,2013-02-02 18:17:00,
2013-02-02 13:23:00,24.3,14.6,30.10,SSW,212,2.0,10.0,66,0.00,,,0.01,Wunderground v.1.13,2013-02-02 18:23:00,
2013-02-02 13:28:00,24.4,14.7,30.10,WSW,248,3.0,10.0,66,0.00,,,0.01,Wunderground v.1.13,2013-02-02 18:28:00,
2013-02-02 13:34:00,24.3,14.9,30.09,SW,219,3.0,10.0,67,0.00,,,0.01,Wunderground v.1.13,2013-02-02 18:34:00,
2013-02-02 13:40:00,24.7,15.6,30.09,SW,224,2.0,10.0,68,0.00,,,0.01,Wunderground v.1.13,2013-02-02 18:40:00,
2013-02-02 13:45:00,24.6,15.2,30.08,SW,235,2.0,2.0,67,0.00,,,0.01,Wunderground v.1.13,2013-02-02 18:45:00,
2013-02-02 13:51:00,24.5,15.8,30.08,WSW,246,2.0,10.0,69,0.00,,,0.01,Wunderground v.1.13,2013-02-02 18:51:00,
2013-02-02 13:57:00,24.7,16.3,30.08,SW,236,1.0,10.0,70,0.00,,,0.01,Wunderground v.1.13,2013-02-02 18:57:00,
2013-02-02 14:03:00,24.9,17.1,30.08,WSW,242,1.0,10.0,72,0.00,,,0.01,Wunderground v.1.13,2013-02-02 19:03:00,
2013-02-02 14:09:00,24.8,17.4,30.07,SSW,211,2.0,6.0,73,0.00,,,0.01,Wunderground v.1.13,2013-02-02 19:09:00,
2013-02-02 14:14:00,24.8,17.7,30.06,SW,217,2.0,5.0,74,0.00,,,0.01,Wunderground v.1.13,2013-02-02 19:14:00,
2013-02-02 14:20:00,25.2,18.1,30.06,SSE,154,3.0,3.0,74,0.00,,,0.01,Wunderground v.1.13,2013-02-02 19:20:00,
2013-02-02 14:26:00,25.4,18.6,30.06,SW,223,2.0,5.0,75,0.00,,,0.01,Wunderground v.1.13,2013-02-02 19:26:00,
2013-02-02 14:32:00,25.4,18.6,30.05,WSW,257,2.0,5.0,75,0.00,,,0.01,Wunderground v.1.13,2013-02-02 19:32:00,
2013-02-02 14:38:00,25.4,18.9,30.05,WSW,254,2.0,5.0,76,0.00,,,0.01,Wunderground v.1.13,2013-02-02 19:38:00,
2013-02-02 14:44:00,25.6,18.8,30.04,WSW,248,2.0,5.0,75,0.00,,,0.01,Wunderground v.1.13,2013-02-02 19:44:00,
2013-02-02 14:50:00,25.7,19.2,30.04,WSW,244,1.0,5.0,76,0.00,,,0.01,Wunderground v.1.13,2013-02-02 19:50:00,
2013-02-02 14:56:00,25.6,19.4,30.04,WSW,253,2.0,5.0,77,0.00,,,0.01,Wunderground v.1.13,2013-02-02 19:56:00,
2013-02-02 15:01:00,25.4,19.5,30.04,WSW,258,2.0,5.0,78,0.00,,,0.01,Wunderground v.1.13,2013-02-02 20:01:00,
2013-02-02 15:07:00,25.6,20.0,30.04,SSW,209,2.0,4.0,79,0.00,,,0.01,Wunderground v.1.13,2013-02-02 20:07:00,
2013-02-02 15:13:00,25.8,20.2,30.04,SW,232,2.0,5.0,79,0.00,,,0.01,Wunderground v.1.13,2013-02-02 20:13:00,
2013-02-02 15:19:00,25.8,19.9,30.04,SW,234,2.0,6.0,78,0.00,,,0.01,Wunderground v.1.13,2013-02-02 20:19:00,
2013-02-02 15:24:00,25.8,20.2,30.04,SW,234,1.0,2.0,79,0.00,,,0.01,Wunderground v.1.13,2013-02-02 20:24:00,
2013-02-02 15:30:00,25.9,20.6,30.04,SW,234,0.0,0.0,80,0.00,,,0.01,Wunderground v.1.13,2013-02-02 20:30:00,
2013-02-02 15:36:00,25.8,20.8,30.04,SW,227,1.0,1.0,81,0.00,,,0.01,Wunderground v.1.13,2013-02-02 20:36:00,
2013-02-02 15:42:00,25.9,20.9,30.04,SW,227,1.0,1.0,81,0.00,,,0.01,Wunderground v.1.13,2013-02-02 20:42:00,
2013-02-02 15:47:00,25.8,20.8,30.03,SW,227,1.0,2.0,81,0.00,,,0.01,Wunderground v.1.13,2013-02-02 20:47:00,
2013-02-02 15:53:00,25.8,20.8,30.03,WSW,242,1.0,4.0,81,0.00,,,0.01,Wunderground v.1.13,2013-02-02 20:53:00,
2013-02-02 15:59:00,25.6,20.6,30.03,WSW,240,2.0,2.0,81,0.00,,,0.01,Wunderground v.1.13,2013-02-02 20:59:00,
2013-02-02 16:05:00,25.6,20.6,30.03,SW,234,2.0,2.0,81,0.00,,,0.01,Wunderground v.1.13,2013-02-02 21:05:00,
2013-02-02 16:11:00,25.5,20.2,30.03,SW,236,2.0,7.0,80,0.00,,,0.01,Wunderground v.1.13,2013-02-02 21:11:00,
2013-02-02 16:17:00,25.6,20.3,30.03,WSW,240,2.0,7.0,80,0.00,,,0.01,Wunderground v.1.13,2013-02-02 21:17:00,
2013-02-02 16:23:00,25.7,20.7,30.03,WSW,238,2.0,7.0,81,0.00,,,0.01,Wunderground v.1.13,2013-02-02 21:23:00,
2013-02-02 16:29:00,25.5,20.5,30.03,WSW,252,2.0,7.0,81,0.00,,,0.01,Wunderground v.1.13,2013-02-02 21:29:00,
2013-02-02 16:34:00,25.4,20.7,30.03,WSW,243,2.0,7.0,82,0.00,,,0.01,Wunderground v.1.13,2013-02-02 21:34:00,
2013-02-02 16:40:00,25.4,20.7,30.03,WSW,243,1.0,7.0,82,0.00,,,0.01,Wunderground v.1.13,2013-02-02 21:40:00,
2013-02-02 16:46:00,25.3,20.9,30.02,WSW,240,1.0,7.0,83,0.00,,,0.01,Wunderground v.1.13,2013-02-02 21:46:00,
2013-02-02 16:52:00,25.3,21.1,30.03,WSW,241,1.0,3.0,84,0.00,,,0.01,Wunderground v.1.13,2013-02-02 21:52:00,
2013-02-02 16:58:00,25.1,20.9,30.03,WSW,242,1.0,7.0,84,0.00,,,0.01,Wunderground v.1.13,2013-02-02 21:58:00,
2013-02-02 17:04:00,25.1,21.2,30.03,WSW,244,1.0,7.0,85,0.00,,,0.01,Wunderground v.1.13,2013-02-02 22:04:00,
2013-02-02 17:10:00,25.1,21.2,30.03,WSW,243,1.0,1.0,85,0.00,,,0.01,Wunderground v.1.13,2013-02-02 22:10:00,
2013-02-02 17:16:00,25.1,21.2,30.03,WSW,246,1.0,1.0,85,0.00,,,0.01,Wunderground v.1.13,2013-02-02 22:16:00,
2013-02-02 17:22:00,25.1,21.2,30.02,WSW,246,0.0,1.0,85,0.00,,,0.01,Wunderground v.1.13,2013-02-02 22:22:00,
2013-02-02 17:27:00,25.2,23.2,30.02,WSW,246,0.0,1.0,92,0.00,,,0.01,Wunderground v.1.13,2013-02-02 22:27:00,
2013-02-02 17:33:00,25.1,21.2,30.02,WSW,246,0.0,1.0,85,0.00,,,0.01,Wunderground v.1.13,2013-02-02 22:33:00,
2013-02-02 17:39:00,25.1,21.2,30.02,WSW,248,0.0,4.0,85,0.00,,,0.01,Wunderground v.1.13,2013-02-02 22:39:00,
2013-02-02 17:45:00,25.1,21.5,30.02,WSW,248,0.0,1.0,86,0.00,,,0.01,Wunderground v.1.13,2013-02-02 22:45:00,
2013-02-02 17:51:00,25.0,21.4,30.02,WSW,248,0.0,1.0,86,0.00,,,0.01,Wunderground v.1.13,2013-02-02 22:51:00,
2013-02-02 17:57:00,25.0,21.4,30.03,WSW,248,0.0,1.0,86,0.00,,,0.01,Wunderground v.1.13,2013-02-02 22:57:00,
2013-02-02 18:03:00,25.0,21.4,30.03,WSW,248,1.0,1.0,86,0.00,,,0.01,Wunderground v.1.13,2013-02-02 23:03:00,
2013-02-02 18:09:00,25.0,21.7,30.03,WSW,248,0.0,0.0,87,0.00,,,0.01,Wunderground v.1.13,2013-02-02 23:09:00,
2013-02-02 18:14:00,25.0,21.7,30.03,WSW,249,0.0,4.0,87,0.00,,,0.01,Wunderground v.1.13,2013-02-02 23:14:00,
2013-02-02 18:20:00,25.0,21.7,30.03,WSW,248,1.0,1.0,87,0.00,,,0.01,Wunderground v.1.13,2013-02-02 23:20:00,
2013-02-02 18:26:00,25.0,21.7,30.03,WSW,248,0.0,0.0,87,0.00,,,0.01,Wunderground v.1.13,2013-02-02 23:26:00,
2013-02-02 18:32:00,25.0,21.7,30.03,WSW,248,0.0,0.0,87,0.00,,,0.01,Wunderground v.1.13,2013-02-02 23:32:00,
2013-02-02 18:38:00,25.0,21.9,30.03,WSW,248,0.0,2.0,88,0.00,,,0.01,Wunderground v.1.13,2013-02-02 23:38:00,
2013-02-02 18:44:00,25.0,21.9,30.03,WSW,248,0.0,0.0,88,0.00,,,0.01,Wunderground v.1.13,2013-02-02 23:44:00,
2013-02-02 18:50:00,25.0,21.9,30.03,WSW,248,0.0,0.0,88,0.00,,,0.01,Wunderground v.1.13,2013-02-02 23:50:00,
2013-02-02 18:56:00,25.0,21.9,30.03,WSW,248,0.0,2.0,88,0.00,,,0.01,Wunderground v.1.13,2013-02-02 23:56:00,
2013-02-02 19:01:00,25.0,21.9,30.03,WSW,248,0.0,0.0,88,0.00,,,0.01,Wunderground v.1.13,2013-02-03 00:01:00,
2013-02-02 19:07:00,25.0,21.9,30.03,WSW,248,0.0,0.0,88,0.00,,,0.01,Wunderground v.1.13,2013-02-03 00:07:00,
2013-02-02 19:13:00,24.9,21.8,30.03,WSW,248,0.0,1.0,88,0.00,,,0.01,Wunderground v.1.13,2013-02-03 00:13:00,
2013-02-02 19:19:00,24.9,21.8,30.03,WSW,248,0.0,1.0,88,0.00,,,0.01,Wunderground v.1.13,2013-02-03 00:19:00,
2013-02-02 19:24:00,24.9,21.8,30.03,WSW,248,0.0,1.0,88,0.00,,,0.01,Wunderground v.1.13,2013-02-03 00:24:00,
2013-02-02 19:30:00,24.9,21.8,30.03,WSW,248,0.0,0.0,88,0.00,,,0.02,Wunderground v.1.13,2013-02-03 00:30:00,
2013-02-02 19:36:00,24.9,21.8,30.03,WSW,248,0.0,1.0,88,0.00,,,0.02,Wunderground v.1.13,2013-02-03 00:36:00,
2013-02-02 19:42:00,24.9,21.8,30.03,WSW,248,0.0,1.0,88,0.00,,,0.02,Wunderground v.1.13,2013-02-03 00:42:00,
2013-02-02 19:47:00,24.9,21.8,30.03,WSW,248,0.0,0.0,88,0.00,,,0.02,Wunderground v.1.13,2013-02-03 00:47:00,
2013-02-02 19:53:00,24.9,21.8,30.03,WSW,248,0.0,0.0,88,0.00,,,0.02,Wunderground v.1.13,2013-02-03 00:53:00,
2013-02-02 19:59:00,24.9,21.8,30.03,WSW,248,1.0,2.0,88,0.00,,,0.02,Wunderground v.1.13,2013-02-03 00:59:00,
2013-02-02 20:05:00,24.9,21.8,30.03,WSW,248,1.0,1.0,88,0.00,,,0.02,Wunderground v.1.13,2013-02-03 01:05:00,
2013-02-02 20:10:00,24.9,21.8,30.03,WSW,251,1.0,1.0,88,0.00,,,0.02,Wunderground v.1.13,2013-02-03 01:10:00,
2013-02-02 20:15:00,24.9,21.8,30.03,WSW,247,1.0,1.0,88,0.00,,,0.02,Wunderground v.1.13,2013-02-03 01:15:00,
2013-02-02 20:21:00,24.9,21.8,30.03,WSW,247,1.0,2.0,88,0.00,,,0.02,Wunderground v.1.13,2013-02-03 01:21:00,
2013-02-02 20:27:00,25.0,21.9,30.03,WSW,249,1.0,2.0,88,0.00,,,0.02,Wunderground v.1.13,2013-02-03 01:27:00,
2013-02-02 20:33:00,25.0,21.9,30.03,WSW,249,1.0,2.0,88,0.00,,,0.02,Wunderground v.1.13,2013-02-03 01:33:00,
2013-02-02 20:38:00,25.1,22.0,30.02,WSW,246,1.0,2.0,88,0.00,,,0.02,Wunderground v.1.13,2013-02-03 01:38:00,
2013-02-02 20:44:00,25.1,22.0,30.02,WSW,258,1.0,3.0,88,0.00,,,0.02,Wunderground v.1.13,2013-02-03 01:44:00,
2013-02-02 20:50:00,25.1,22.0,30.02,WSW,257,1.0,1.0,88,0.00,,,0.02,Wunderground v.1.13,2013-02-03 01:50:00,
2013-02-02 20:56:00,25.1,22.0,30.02,WSW,257,1.0,2.0,88,0.00,,,0.02,Wunderground v.1.13,2013-02-03 01:56:00,
2013-02-02 21:01:00,25.1,22.0,30.02,WSW,256,1.0,2.0,88,0.00,,,0.02,Wunderground v.1.13,2013-02-03 02:01:00,
2013-02-02 21:07:00,25.1,22.0,30.02,WSW,256,1.0,1.0,88,0.00,,,0.02,Wunderground v.1.13,2013-02-03 02:07:00,
2013-02-02 21:13:00,25.1,22.0,30.02,WSW,256,1.0,4.0,88,0.00,,,0.02,Wunderground v.1.13,2013-02-03 02:13:00,
2013-02-02 21:19:00,25.1,22.0,30.02,WSW,255,1.0,2.0,88,0.00,,,0.02,Wunderground v.1.13,2013-02-03 02:19:00,
2013-02-02 21:24:00,25.0,21.9,30.02,WSW,255,1.0,3.0,88,0.00,,,0.02,Wunderground v.1.13,2013-02-03 02:24:00,
2013-02-02 21:29:00,25.0,21.9,30.02,WSW,255,1.0,5.0,88,0.00,,,0.02,Wunderground v.1.13,2013-02-03 02:29:00,
2013-02-02 21:35:00,25.1,22.0,30.02,WSW,254,1.0,1.0,88,0.00,,,0.02,Wunderground v.1.13,2013-02-03 02:35:00,
2013-02-02 21:41:00,25.1,22.0,30.02,WSW,254,0.0,1.0,88,0.00,,,0.02,Wunderground v.1.13,2013-02-03 02:41:00,
2013-02-02 21:47:00,25.1,22.0,30.02,WSW,254,0.0,1.0,88,0.00,,,0.02,Wunderground v.1.13,2013-02-03 02:47:00,
2013-02-02 21:53:00,25.1,22.0,30.02,WSW,254,0.0,0.0,88,0.00,,,0.02,Wunderground v.1.13,2013-02-03 02:53:00,
2013-02-02 21:59:00,25.1,22.0,30.02,WSW,258,1.0,5.0,88,0.00,,,0.02,Wunderground v.1.13,2013-02-03 02:59:00,
2013-02-02 22:05:00,25.1,22.0,30.02,WSW,257,1.0,1.0,88,0.00,,,0.02,Wunderground v.1.13,2013-02-03 03:05:00,
2013-02-02 22:11:00,25.1,22.0,30.02,WSW,253,1.0,3.0,88,0.00,,,0.02,Wunderground v.1.13,2013-02-03 03:11:00,
2013-02-02 22:16:00,25.0,21.9,30.01,West,263,2.0,3.0,88,0.00,,,0.02,Wunderground v.1.13,2013-02-03 03:16:00,
2013-02-02 22:22:00,25.0,21.9,30.01,West,263,1.0,3.0,88,0.00,,,0.02,Wunderground v.1.13,2013-02-03 03:22:00,
2013-02-02 22:28:00,25.0,21.9,30.01,West,263,0.0,3.0,88,0.00,,,0.02,Wunderground v.1.13,2013-02-03 03:28:00,
2013-02-02 22:34:00,24.9,21.8,30.01,West,263,0.0,3.0,88,0.00,,,0.02,Wunderground v.1.13,2013-02-03 03:34:00,
2013-02-02 22:40:00,24.9,21.8,30.00,West,262,0.0,3.0,88,0.00,,,0.02,Wunderground v.1.13,2013-02-03 03:40:00,
2013-02-02 22:46:00,24.9,21.6,30.00,West,259,1.0,3.0,87,0.00,,,0.02,Wunderground v.1.13,2013-02-03 03:46:00,
2013-02-02 22:52:00,24.9,21.6,30.00,WSW,256,1.0,3.0,87,0.00,,,0.02,Wunderground v.1.13,2013-02-03 03:52:00,
2013-02-02 22:58:00,24.8,21.5,30.00,SW,221,1.0,3.0,87,0.00,,,0.02,Wunderground v.1.13,2013-02-03 03:58:00,
2013-02-02 23:03:00,24.9,21.6,30.00,SW,221,1.0,3.0,87,0.00,,,0.02,Wunderground v.1.13,2013-02-03 04:03:00,
2013-02-02 23:09:00,24.9,21.6,30.00,SW,221,1.0,4.0,87,0.00,,,0.02,Wunderground v.1.13,2013-02-03 04:09:00,
2013-02-02 23:15:00,24.9,21.6,30.00,SW,224,1.0,4.0,87,0.00,,,0.02,Wunderground v.1.13,2013-02-03 04:15:00,
2013-02-02 23:21:00,24.9,21.6,30.00,SW,225,0.0,4.0,87,0.00,,,0.02,Wunderground v.1.13,2013-02-03 04:21:00,
2013-02-02 23:26:00,24.9,21.6,30.00,SW,225,1.0,2.0,87,0.00,,,0.02,Wunderground v.1.13,2013-02-03 04:26:00,
2013-02-02 23:31:00,24.9,21.6,30.00,SW,225,1.0,4.0,87,0.00,,,0.02,Wunderground v.1.13,2013-02-03 04:31:00,
2013-02-02 23:37:00,24.9,21.6,30.00,SW,225,1.0,4.0,87,0.00,,,0.02,Wunderground v.1.13,2013-02-03 04:37:00,
2013-02-02 23:43:00,24.9,21.6,30.00,SW,225,0.0,4.0,87,0.00,,,0.02,Wunderground v.1.13,2013-02-03 04:43:00,
2013-02-02 23:49:00,24.8,21.5,30.00,SW,225,0.0,4.0,87,0.00,,,0.02,Wunderground v.1.13,2013-02-03 04:49:00,
2013-02-02 23:55:00,24.8,21.5,30.00,SW,225,0.0,4.0,87,0.00,,,0.02,Wunderground v.1.13,2013-02-03 04:55:00,